SCP
0 0 0 0 0 0 0 0 0 0 0 0 0 0 0 0 0 0 0 0 0 0 0 0 0 -0 -0 0 0 0 0 0 0 0 0 0 0 0 0 0 0 0 0
0 0 0 0 0 0 0 0 0 0 0 0 0 0 0 0 0 0 0 0 0 0 0 0 0 0 0 0 0 0 0 0 0 0 0 0 0 0 0 0 0 0 0
0 0 0 0 0 0 0 0 0 0 0 0 0 0 0 0 0 0 0 0 0 0 0 0 0 0 0 0 0 0 0 0 0 0 0 0 0 0 0 0 0 0 0
0 0 0 0 0 0 0 0 0 0 0 0 0 0 0 0 0 0 0 0 0 0 0 0 0 0 0 0 0 0 0 0 0 0 0 -0 0 0 0 0 0 0 0
0 0 0 0 0 0 0 0 0 0 0 0 0 0 0 0 0 0 0 0 0 0 0 0 0 0 0 0 0 0 0 0 0 0 -0 0 0 0 0 0 0 0 0
0 0 0 0 0 0 0 0 0 0 0 0 -0 -0 -0 0 0 0 0 0 0 0 0 0 0 0 0 0 0 0 0 0 0 0 0 0 0 0 0 0 0 0 0
0 0 0 0 0 0 0 0 0 0 0 0 0 -0 -0 -0 -0 -0 0 0 0 0 0 -0 0 0 0 0 0 0 0 0 0 0 0 0 0 0 0 0 0 0 0
0 0 0 0 0 0 0 0 0 0 0 0 0 0 -0 -0 -0 0 -0 -0 -0 -0 -0 -0 0 0 0 0 0 0 0 0 0 0 0 0 0 0 0 0 0 0 0
0 0 0 0 0 0 0 0 0 0 0 0 0 0 -0 -0 -0 0 0 0 0 0 0 0 0 0 0 0 0 0 0 0 0 0 0 0 0 0 0 0 0 0 0
0 0 0 0 0 0 0 0 0 0 0 0 0 0 0 0 0 0 0 0 0 0 0 0 0 0 0 0 0 0 0 0 0 0 0 0 0 0 0 0 0 0 0
1 0 0 0 0 0 0 0 0 0 0 0 0 0 0 0 0 0 0 0 0 0 0 0 0 0 0 0 0 0 0 0 0 0 0 0 0 0 0 0 0 0 0
1 1 0 0 0 0 0 0 0 0 0 0 0 0 0 0 0 0 0 0 0 0 0 0 0 0 0 0 0 0 0 0 0 0 0 0 0 0 0 0 0 0 0
0 1 1 1 0 0 0 0 0 0 0 0 0 0 0 0 0 0 0 0 0 0 0 0 0 0 0 0 0 0 0 0 0 0 0 0 0 0 0 0 0 0 0
0 0 0 1 1 0 1 0 0 0 0 0 0 0 0 0 0 0 0 0 0 0 0 0 0 0 0 0 0 0 0 0 0 0 0 0 0 0 0 0 0 0 0
0 0 0 1 1 1 1 0 0 0 0 0 0 0 0 0 0 0 0 0 0 0 0 0 0 0 0 0 0 0 0 0 0 0 0 0 0 0 0 0 0 0 0
0 0 0 1 1 1 1 1 0 0 0 0 0 0 0 0 0 0 0 0 0 0 0 0 0 0 0 0 0 0 0 0 0 0 0 0 0 0 0 0 0 0 0
0 0 0 1 1 1 1 1 1 0 0 0 0 0 0 0 0 0 0 0 0 0 0 0 0 0 0 0 0 0 0 0 0 0 0 0 0 0 0 0 0 0 0
0 0 1 1 1 2 1 1 1 1 0 0 0 0 0 0 0 0 0 0 0 0 0 0 0 0 0 0 0 0 0 0 0 0 0 0 0 0 0 0 0 0 0
0 0 0 2 1 1 1 1 1 1 1 1 0 0 0 0 0 0 0 0 0 0 0 0 0 0 0 0 0 0 0 0 0 0 0 0 0 0 0 0 0 0 0
0 0 0 2 2 2 2 1 1 1 0 0 0 0 0 0 0 0 0 0 0 0 0 0 0 0 0 0 0 0 0 0 0 0 0 0 0 0 0 0 0 0 0
0 0 0 0 2 3 3 2 2 1 1 1 0 0 0 0 0 0 0 0 0 0 0 0 0 0 0 0 0 0 0 0 0 0 0 0 0 0 0 0 0 0 0
0 0 0 0 1 3 3 3 3 2 0 0 0 0 0 0 0 0 0 0 0 0 0 0 0 0 0 0 0 0 0 0 0 0 0 0 0 0 0 0 0 0 0
0 0 0 0 0 3 3 3 0 0 0 0 0 0 0 0 0 0 0 0 0 0 0 0 0 0 0 0 0 0 0 0 0 0 0 0 0 0 0 0 0 0 0
0 0 0 0 0 0 2 3 1 1 0 0 0 0 0 0 0 0 0 0 0 0 0 0 0 0 0 0 0 0 0 0 0 0 0 0 0 0 0 0 0 0 0
0 0 0 0 0 0 2 1 1 0 0 0 0 0 0 0 0 0 0 0 0 0 0 0 0 0 0 0 0 0 0 0 0 0 0 0 0 0 0 0 0 0 0
0 0 0 0 0 0 2 1 1 0 0 0 0 0 0 0 0 0 0 0 0 0 0 0 0 0 0 0 0 0 0 0 0 0 0 0 0 0 0 0 0 0 0
Wind_Speed_500mb
28 26 26 27 30 29 28 26 25 22 20 19 17 14 10 7 3 1 4 8 7 4 3 8 23 30 26 21 13 8 5 3 1 4 4 4 9 14 14 7 6 5 3
29 37 29 31 32 31 30 26 23 21 19 19 20 16 12 8 8 7 5 5 4 9 9 17 25 22 16 9 3 2 7 8 11 14 12 11 14 17 16 12 6 3 9
32 41 33 32 32 32 29 24 20 18 21 20 24 24 18 16 13 8 10 15 18 20 20 20 22 19 16 8 6 5 9 18 22 20 14 12 16 18 17 11 9 5 6
32 41 36 34 32 30 29 23 19 21 22 23 30 34 26 18 11 11 17 22 25 26 25 24 18 12 6 2 4 12 17 23 22 18 19 15 18 15 18 14 12 13 10
35 39 38 35 31 29 27 22 21 21 21 25 29 28 22 18 22 20 20 23 24 25 25 25 24 23 19 17 16 18 22 19 16 18 17 11 14 11 17 13 10 11 9
30 37 38 35 31 28 27 23 23 22 25 31 30 31 33 31 26 21 20 21 22 22 22 23 23 22 21 20 20 20 20 15 18 15 11 5 13 11 17 11 11 11 11
31 36 33 35 32 28 26 23 24 25 29 34 34 35 31 28 23 19 19 20 20 20 20 21 22 21 19 18 16 14 12 11 11 9 3 7 10 14 15 10 5 6 6
25 28 26 27 31 27 25 22 22 27 28 31 31 29 26 22 18 16 15 16 17 17 17 18 17 15 14 13 12 12 12 11 9 7 8 12 10 12 10 7 6 9 10
33 31 30 28 29 27 25 22 19 20 26 31 29 28 25 19 19 18 14 13 14 13 13 12 12 11 10 10 11 11 8 8 4 2 5 8 13 14 11 9 7 8 10
36 32 29 37 35 32 27 25 22 21 23 28 28 27 25 20 19 19 15 12 11 11 9 8 7 6 6 7 9 7 3 1 6 6 12 13 15 17 16 14 10 5 7
39 36 29 35 38 32 29 28 26 24 25 26 28 28 25 22 19 15 11 12 9 9 8 5 2 3 4 6 7 6 4 5 14 17 17 19 18 17 11 7 3 1 4
43 39 33 26 31 34 35 31 28 28 28 31 29 27 26 23 21 17 14 11 9 8 7 5 1 2 5 10 9 11 15 13 17 21 20 20 18 2 2 4 5 4 6
47 39 38 32 31 28 30 34 32 28 28 30 31 29 29 27 22 18 14 13 12 11 11 8 3 3 7 8 11 16 21 20 19 20 19 17 5 12 10 5 4 7 12
48 51 45 38 35 30 24 34 30 29 30 30 29 31 32 25 22 20 16 16 15 11 12 8 7 8 11 14 18 18 17 16 18 17 16 13 8 11 8 7 7 9 11
54 50 56 55 46 42 38 39 39 32 31 30 32 31 30 28 30 30 27 22 19 13 13 10 11 12 15 17 18 16 13 11 13 15 16 11 4 7 7 8 10 11 14
47 56 52 59 57 54 51 45 45 35 31 29 27 25 30 27 30 34 31 30 24 23 19 16 15 14 16 14 13 12 10 9 10 14 14 12 7 6 8 9 11 14 18
37 49 56 55 55 60 61 52 50 41 38 33 32 33 32 29 34 41 37 36 29 25 19 17 15 14 13 10 10 10 9 8 11 13 15 13 11 9 9 11 14 18 24
43 50 56 58 58 55 60 64 55 51 49 47 42 44 37 37 33 33 36 38 31 25 20 18 14 10 8 8 9 9 9 8 8 12 15 17 14 15 16 17 21 23 23
65 51 60 67 66 63 59 60 61 56 61 51 50 54 47 44 39 42 41 36 30 25 22 18 12 7 5 8 9 8 8 5 4 9 14 14 16 19 21 25 25 28 24
74 69 62 75 74 68 58 59 62 59 64 56 57 59 58 56 49 45 41 32 28 25 24 18 11 5 3 6 7 8 4 5 3 8 14 18 20 24 32 31 31 27 37
73 72 79 65 78 81 72 66 63 64 66 64 62 61 59 58 54 51 42 36 32 28 25 19 12 5 2 5 7 4 0 2 2 5 12 15 24 30 31 37 35 40 45
52 72 80 75 71 88 84 75 66 64 72 68 67 64 61 54 58 56 45 39 32 31 28 21 14 7 1 6 7 4 2 4 5 7 10 21 26 26 29 32 41 47 52
62 58 68 72 62 84 84 78 72 68 77 81 73 69 66 65 66 57 48 42 35 33 29 22 15 8 2 6 9 8 5 3 13 13 17 20 26 28 31 37 41 52 53
75 61 64 67 59 76 86 87 84 84 83 89 84 79 68 70 68 61 54 47 41 36 32 24 16 9 4 6 9 10 7 9 6 8 18 23 27 33 36 41 49 44 46
46 76 53 69 74 60 91 91 85 85 84 88 89 84 74 75 70 63 58 51 48 42 35 27 19 12 9 9 11 12 13 13 16 18 30 27 37 40 41 43 46 43 38
25 26 53 62 74 79 75 87 90 87 83 90 94 87 80 77 75 69 62 56 50 44 37 30 22 15 11 12 14 16 16 16 19 22 32 46 51 55 51 47 42 38 37
Wind_Direction_500mb
185 178 164 152 149 150 150 149 151 160 171 179 176 170 184 168 151 359 20 350 328 344 13 118 128 95 120 126 108 100 355 355 322 291 299 354 27 18 12 9 115 122 225
191 172 165 153 147 147 144 141 143 151 166 180 172 176 186 175 149 115 51 357 69 97 99 128 139 134 126 123 81 254 340 40 78 90 85 76 58 33 29 41 110 314 22
182 168 160 152 150 143 136 133 135 141 148 154 167 167 161 143 154 109 65 85 85 86 90 122 151 153 162 186 235 313 40 90 103 93 68 50 50 37 26 26 26 20 52
186 166 159 155 152 145 135 130 124 130 132 140 145 160 163 163 149 101 99 93 90 91 93 98 112 142 161 150 43 61 91 97 92 79 66 32 27 32 25 21 24 27 38
176 168 163 159 153 149 138 125 121 127 128 137 149 159 164 159 139 123 106 96 93 92 92 93 95 96 98 94 86 81 94 96 88 71 58 19 24 23 17 17 32 35 41
172 174 169 161 158 153 144 136 133 132 129 133 136 143 137 134 137 125 109 99 95 91 89 91 93 92 91 88 83 82 85 92 86 63 71 19 3 2 344 356 26 26 23
181 174 171 170 164 159 153 146 140 141 139 143 139 140 140 139 139 126 116 106 98 92 89 89 88 86 82 76 72 69 77 103 122 113 132 266 305 323 328 327 20 339 318
193 177 188 190 172 166 160 155 149 149 146 151 153 152 152 149 154 142 127 112 104 99 97 94 87 77 62 53 48 48 60 110 131 173 209 266 296 309 332 6 270 268 272
202 196 203 197 185 172 169 165 159 156 156 159 158 155 156 154 164 155 145 130 118 110 111 104 89 73 58 48 50 48 73 120 181 233 248 276 297 304 315 311 298 305 294
200 211 225 205 199 188 180 173 170 172 166 164 162 157 158 156 155 164 160 149 137 131 129 118 97 70 53 65 59 51 116 117 293 291 282 285 288 295 299 287 305 307 301
209 220 217 212 207 197 192 182 179 181 178 171 166 166 170 171 178 179 171 165 160 155 148 140 110 51 31 10 11 350 331 308 288 283 283 287 292 304 298 314 308 225 282
205 216 218 216 210 209 204 196 190 190 189 182 179 178 182 189 192 195 193 198 187 188 179 192 222 23 338 330 333 320 306 298 289 281 288 296 309 212 89 156 149 308 290
202 215 218 218 210 215 216 200 205 198 198 188 186 186 193 198 197 195 195 209 207 205 193 203 194 294 307 306 308 307 307 304 293 288 291 298 190 102 119 81 331 301 305
209 206 213 219 217 221 227 210 215 212 205 199 193 187 198 205 216 208 209 206 206 201 206 231 265 295 304 308 311 309 309 300 292 287 295 303 276 227 268 313 325 320 318
216 211 202 207 216 224 225 213 220 209 202 202 200 199 206 211 220 202 204 208 207 230 229 241 263 281 293 303 305 312 316 299 291 288 295 315 284 249 281 306 317 316 318
224 217 210 207 207 215 217 222 222 219 201 209 209 214 220 220 205 200 208 212 221 240 241 250 261 272 288 298 309 313 322 312 297 282 287 299 293 270 281 293 307 310 313
227 218 214 214 218 219 218 218 213 212 208 219 219 218 225 217 202 202 210 221 235 234 240 243 251 274 289 305 312 316 323 315 286 277 284 295 299 296 304 311 304 306 307
237 228 221 220 225 225 224 222 213 202 207 211 213 209 215 224 214 212 221 232 235 237 241 240 250 259 284 316 325 323 318 307 264 277 290 302 307 315 312 306 307 311 309
231 237 228 225 227 228 227 226 216 206 206 214 211 209 216 218 218 220 229 234 232 231 238 233 236 248 307 339 333 332 338 334 246 253 279 293 311 313 317 310 317 314 315
240 239 243 232 227 227 227 224 218 208 203 211 214 212 219 221 212 223 230 226 224 231 225 224 223 237 325 1 350 342 17 44 350 288 276 294 309 311 315 314 320 316 320
241 241 243 234 226 221 222 220 217 208 203 213 214 216 225 221 219 227 221 216 223 230 219 215 212 213 343 18 10 358 110 349 332 297 265 284 299 305 311 317 317 318 321
245 240 239 241 236 224 219 220 227 220 207 215 214 216 225 222 229 221 222 217 223 226 214 209 203 202 264 17 23 29 337 274 286 286 275 281 282 293 302 305 311 316 318
251 248 241 240 241 230 221 221 225 220 214 212 215 220 225 224 219 219 218 216 216 217 214 209 207 207 264 358 16 24 344 305 312 263 249 253 270 283 295 300 305 310 313
252 252 248 245 238 233 225 221 219 222 215 217 217 218 222 217 218 215 215 214 212 214 212 212 215 227 271 328 347 346 334 299 294 281 254 258 269 280 293 293 301 306 308
256 239 250 242 245 233 229 227 217 222 222 221 219 221 216 220 214 213 213 214 208 207 209 215 220 238 271 305 324 328 320 306 288 276 289 277 282 291 296 304 309 312 305
243 256 248 244 240 238 233 227 223 222 227 224 218 216 210 221 208 211 213 213 211 209 211 215 222 237 269 298 312 315 311 302 293 279 281 294 300 307 310 312 314 314 311
Wind_Speed_850mb
28 26 26 27 30 29 28 26 25 22 20 19 17 14 10 7 3 1 4 8 7 4 3 8 23 30 26 21 13 8 5 3 1 4 4 4 9 14 14 7 6 5 3
29 37 29 31 32 31 30 26 23 21 19 19 20 16 12 8 8 7 5 5 4 9 9 17 25 22 16 9 3 2 7 8 11 14 12 11 14 17 16 12 6 3 9
32 41 33 32 32 32 29 24 20 18 21 20 24 24 18 16 13 8 10 15 18 20 20 20 22 19 16 8 6 5 9 18 22 20 14 12 16 18 17 11 9 5 6
32 41 36 34 32 30 29 23 19 21 22 23 30 34 26 18 11 11 17 22 25 26 25 24 18 12 6 2 4 12 17 23 22 18 19 15 18 15 18 14 12 13 10
35 39 38 35 31 29 27 22 21 21 21 25 29 28 22 18 22 20 20 23 24 25 25 25 24 23 19 17 16 18 22 19 16 18 17 11 14 11 17 13 10 11 9
30 37 38 35 31 28 27 23 23 22 25 31 30 31 33 31 26 21 20 21 22 22 22 23 23 22 21 20 20 20 20 15 18 15 11 5 13 11 17 11 11 11 11
31 36 33 35 32 28 26 23 24 25 29 34 34 35 31 28 23 19 19 20 20 20 20 21 22 21 19 18 16 14 12 11 11 9 3 7 10 14 15 10 5 6 6
25 28 26 27 31 27 25 22 22 27 28 31 31 29 26 22 18 16 15 16 17 17 17 18 17 15 14 13 12 12 12 11 9 7 8 12 10 12 10 7 6 9 10
33 31 30 28 29 27 25 22 19 20 26 31 29 28 25 19 19 18 14 13 14 13 13 12 12 11 10 10 11 11 8 8 4 2 5 8 13 14 11 9 7 8 10
36 32 29 37 35 32 27 25 22 21 23 28 28 27 25 20 19 19 15 12 11 11 9 8 7 6 6 7 9 7 3 1 6 6 12 13 15 17 16 14 10 5 7
39 36 29 35 38 32 29 28 26 24 25 26 28 28 25 22 19 15 11 12 9 9 8 5 2 3 4 6 7 6 4 5 14 17 17 19 18 17 11 7 3 1 4
43 39 33 26 31 34 35 31 28 28 28 31 29 27 26 23 21 17 14 11 9 8 7 5 1 2 5 10 9 11 15 13 17 21 20 20 18 2 2 4 5 4 6
47 39 38 32 31 28 30 34 32 28 28 30 31 29 29 27 22 18 14 13 12 11 11 8 3 3 7 8 11 16 21 20 19 20 19 17 5 12 10 5 4 7 12
48 51 45 38 35 30 24 34 30 29 30 30 29 31 32 25 22 20 16 16 15 11 12 8 7 8 11 14 18 18 17 16 18 17 16 13 8 11 8 7 7 9 11
54 50 56 55 46 42 38 39 39 32 31 30 32 31 30 28 30 30 27 22 19 13 13 10 11 12 15 17 18 16 13 11 13 15 16 11 4 7 7 8 10 11 14
47 56 52 59 57 54 51 45 45 35 31 29 27 25 30 27 30 34 31 30 24 23 19 16 15 14 16 14 13 12 10 9 10 14 14 12 7 6 8 9 11 14 18
37 49 56 55 55 60 61 52 50 41 38 33 32 33 32 29 34 41 37 36 29 25 19 17 15 14 13 10 10 10 9 8 11 13 15 13 11 9 9 11 14 18 24
43 50 56 58 58 55 60 64 55 51 49 47 42 44 37 37 33 33 36 38 31 25 20 18 14 10 8 8 9 9 9 8 8 12 15 17 14 15 16 17 21 23 23
65 51 60 67 66 63 59 60 61 56 61 51 50 54 47 44 39 42 41 36 30 25 22 18 12 7 5 8 9 8 8 5 4 9 14 14 16 19 21 25 25 28 24
74 69 62 75 74 68 58 59 62 59 64 56 57 59 58 56 49 45 41 32 28 25 24 18 11 5 3 6 7 8 4 5 3 8 14 18 20 24 32 31 31 27 37
73 72 79 65 78 81 72 66 63 64 66 64 62 61 59 58 54 51 42 36 32 28 25 19 12 5 2 5 7 4 0 2 2 5 12 15 24 30 31 37 35 40 45
52 72 80 75 71 88 84 75 66 64 72 68 67 64 61 54 58 56 45 39 32 31 28 21 14 7 1 6 7 4 2 4 5 7 10 21 26 26 29 32 41 47 52
62 58 68 72 62 84 84 78 72 68 77 81 73 69 66 65 66 57 48 42 35 33 29 22 15 8 2 6 9 8 5 3 13 13 17 20 26 28 31 37 41 52 53
75 61 64 67 59 76 86 87 84 84 83 89 84 79 68 70 68 61 54 47 41 36 32 24 16 9 4 6 9 10 7 9 6 8 18 23 27 33 36 41 49 44 46
46 76 53 69 74 60 91 91 85 85 84 88 89 84 74 75 70 63 58 51 48 42 35 27 19 12 9 9 11 12 13 13 16 18 30 27 37 40 41 43 46 43 38
25 26 53 62 74 79 75 87 90 87 83 90 94 87 80 77 75 69 62 56 50 44 37 30 22 15 11 12 14 16 16 16 19 22 32 46 51 55 51 47 42 38 37
Wind_Direction_850mb
185 178 164 152 149 150 150 149 151 160 171 179 176 170 184 168 151 359 20 350 328 344 13 118 128 95 120 126 108 100 355 355 322 291 299 354 27 18 12 9 115 122 225
191 172 165 153 147 147 144 141 143 151 166 180 172 176 186 175 149 115 51 357 69 97 99 128 139 134 126 123 81 254 340 40 78 90 85 76 58 33 29 41 110 314 22
182 168 160 152 150 143 136 133 135 141 148 154 167 167 161 143 154 109 65 85 85 86 90 122 151 153 162 186 235 313 40 90 103 93 68 50 50 37 26 26 26 20 52
186 166 159 155 152 145 135 130 124 130 132 140 145 160 163 163 149 101 99 93 90 91 93 98 112 142 161 150 43 61 91 97 92 79 66 32 27 32 25 21 24 27 38
176 168 163 159 153 149 138 125 121 127 128 137 149 159 164 159 139 123 106 96 93 92 92 93 95 96 98 94 86 81 94 96 88 71 58 19 24 23 17 17 32 35 41
172 174 169 161 158 153 144 136 133 132 129 133 136 143 137 134 137 125 109 99 95 91 89 91 93 92 91 88 83 82 85 92 86 63 71 19 3 2 344 356 26 26 23
181 174 171 170 164 159 153 146 140 141 139 143 139 140 140 139 139 126 116 106 98 92 89 89 88 86 82 76 72 69 77 103 122 113 132 266 305 323 328 327 20 339 318
193 177 188 190 172 166 160 155 149 149 146 151 153 152 152 149 154 142 127 112 104 99 97 94 87 77 62 53 48 48 60 110 131 173 209 266 296 309 332 6 270 268 272
202 196 203 197 185 172 169 165 159 156 156 159 158 155 156 154 164 155 145 130 118 110 111 104 89 73 58 48 50 48 73 120 181 233 248 276 297 304 315 311 298 305 294
200 211 225 205 199 188 180 173 170 172 166 164 162 157 158 156 155 164 160 149 137 131 129 118 97 70 53 65 59 51 116 117 293 291 282 285 288 295 299 287 305 307 301
209 220 217 212 207 197 192 182 179 181 178 171 166 166 170 171 178 179 171 165 160 155 148 140 110 51 31 10 11 350 331 308 288 283 283 287 292 304 298 314 308 225 282
205 216 218 216 210 209 204 196 190 190 189 182 179 178 182 189 192 195 193 198 187 188 179 192 222 23 338 330 333 320 306 298 289 281 288 296 309 212 89 156 149 308 290
202 215 218 218 210 215 216 200 205 198 198 188 186 186 193 198 197 195 195 209 207 205 193 203 194 294 307 306 308 307 307 304 293 288 291 298 190 102 119 81 331 301 305
209 206 213 219 217 221 227 210 215 212 205 199 193 187 198 205 216 208 209 206 206 201 206 231 265 295 304 308 311 309 309 300 292 287 295 303 276 227 268 313 325 320 318
216 211 202 207 216 224 225 213 220 209 202 202 200 199 206 211 220 202 204 208 207 230 229 241 263 281 293 303 305 312 316 299 291 288 295 315 284 249 281 306 317 316 318
224 217 210 207 207 215 217 222 222 219 201 209 209 214 220 220 205 200 208 212 221 240 241 250 261 272 288 298 309 313 322 312 297 282 287 299 293 270 281 293 307 310 313
227 218 214 214 218 219 218 218 213 212 208 219 219 218 225 217 202 202 210 221 235 234 240 243 251 274 289 305 312 316 323 315 286 277 284 295 299 296 304 311 304 306 307
237 228 221 220 225 225 224 222 213 202 207 211 213 209 215 224 214 212 221 232 235 237 241 240 250 259 284 316 325 323 318 307 264 277 290 302 307 315 312 306 307 311 309
231 237 228 225 227 228 227 226 216 206 206 214 211 209 216 218 218 220 229 234 232 231 238 233 236 248 307 339 333 332 338 334 246 253 279 293 311 313 317 310 317 314 315
240 239 243 232 227 227 227 224 218 208 203 211 214 212 219 221 212 223 230 226 224 231 225 224 223 237 325 1 350 342 17 44 350 288 276 294 309 311 315 314 320 316 320
241 241 243 234 226 221 222 220 217 208 203 213 214 216 225 221 219 227 221 216 223 230 219 215 212 213 343 18 10 358 110 349 332 297 265 284 299 305 311 317 317 318 321
245 240 239 241 236 224 219 220 227 220 207 215 214 216 225 222 229 221 222 217 223 226 214 209 203 202 264 17 23 29 337 274 286 286 275 281 282 293 302 305 311 316 318
251 248 241 240 241 230 221 221 225 220 214 212 215 220 225 224 219 219 218 216 216 217 214 209 207 207 264 358 16 24 344 305 312 263 249 253 270 283 295 300 305 310 313
252 252 248 245 238 233 225 221 219 222 215 217 217 218 222 217 218 215 215 214 212 214 212 212 215 227 271 328 347 346 334 299 294 281 254 258 269 280 293 293 301 306 308
256 239 250 242 245 233 229 227 217 222 222 221 219 221 216 220 214 213 213 214 208 207 209 215 220 238 271 305 324 328 320 306 288 276 289 277 282 291 296 304 309 312 305
243 256 248 244 240 238 233 227 223 222 227 224 218 216 210 221 208 211 213 213 211 209 211 215 222 237 269 298 312 315 311 302 293 279 281 294 300 307 310 312 314 314 311